YM2KA-13 Weather Reports


time (UTC)temp
F
wind
direction
speed
knots
gust
knots
rain 1hr
in
rain 24hr
in
rain mn
in
humidity
%
barometer
mb
20260507021351 45 192 0.9 1.7 0.00 0.00 0.00 77 1017.1
20260507020725 45 127 0.0 1.7 0.00 0.00 0.00 78 1017.1
20260507020351 45 107 0.0 0.9 0.00 0.00 0.00 78 1017.1
20260507015342 45 148 0.9 0.9 0.00 0.00 0.00 78 1017.1
20260507015231 45 152 0.9 1.7 0.00 0.00 0.00 78 1017.1
20260507014344 45 151 0.0 0.9 0.00 0.00 0.00 78 1017.1
20260507013728 45 179 0.9 0.9 0.00 0.00 0.00 79 1017.1
20260507013344 45 148 0.9 0.9 0.00 0.00 0.00 78 1017.1
20260507012346 45 155 0.0 0.0 0.00 0.00 0.00 79 1017.0
20260507012225 45 159 0.0 0.0 0.00 0.00 0.00 79 1017.0
20260507011347 45 172 0.0 0.0 0.00 0.00 0.00 79 1016.9
20260507010731 45 131 0.0 0.0 0.00 0.00 0.00 79 1016.9
20260507010347 45 141 0.0 0.0 0.00 0.00 0.00 79 1016.9
20260507005349 45 189 0.0 0.0 0.00 0.00 0.00 79 1017.0
20260507005228 45 176 0.0 0.0 0.00 0.00 0.00 79 1017.0
20260507004350 45 143 0.0 0.0 0.00 0.00 0.00 80 1017.0
20260507003724 45 143 0.0 0.0 0.00 0.00 0.00 80 1017.0
20260507003351 45 210 0.0 0.0 0.00 0.00 0.00 80 1017.0
20260507002342 45 255 0.0 0.0 0.00 0.00 0.00 79 1016.9
20260507002231 45 255 0.0 0.0 0.00 0.00 0.00 79 1017.0
20260507001343 45 255 0.0 0.0 0.00 0.00 0.00 79 1016.9
20260507000728 45 255 0.0 0.0 0.00 0.00 0.00 78 1016.8
20260507000344 45 255 0.0 0.0 0.00 0.00 0.00 78 1016.8
20260506235346 45 249 0.0 0.0 0.00 0.00 0.00 79 1016.8
20260506235224 45 168 0.0 0.0 0.00 0.00 0.00 79 1016.7
20260506234347 45 148 0.0 0.0 0.00 0.00 0.00 78 1016.7
20260506233731 45 148 0.0 0.0 0.00 0.00 0.00 77 1016.6
20260506233347 45 172 0.0 0.0 0.00 0.00 0.00 77 1016.6
20260506232349 46 172 0.0 0.0 0.00 0.00 0.00 77 1016.5
20260506232228 46 172 0.0 0.0 0.00 0.00 0.00 76 1016.5
20260506231350 46 170 0.0 0.0 0.00 0.00 0.00 76 1016.5
20260506230724 46 277 0.0 0.0 0.00 0.00 0.00 77 1016.5
20260506230350 46 255 0.0 0.0 0.00 0.00 0.00 77 1016.5
20260506225352 47 255 0.0 0.0 0.00 0.00 0.00 76 1016.4
20260506225231 47 255 0.0 0.0 0.00 0.00 0.00 75 1016.4
20260506224343 47 266 0.0 0.9 0.00 0.00 0.00 74 1016.3
20260506223728 47 258 0.0 0.0 0.00 0.00 0.00 73 1016.3
20260506223344 47 258 0.0 0.0 0.00 0.00 0.00 72 1016.3
20260506222346 48 261 0.0 0.9 0.00 0.00 0.00 71 1016.3
20260506222224 48 246 0.0 0.0 0.00 0.00 0.00 70 1016.3
20260506221346 48 219 0.0 0.0 0.00 0.00 0.00 70 1016.4
20260506220731 48 253 0.0 0.0 0.00 0.00 0.00 71 1016.5
20260506220347 48 285 0.0 0.0 0.00 0.00 0.00 71 1016.5
20260506215349 49 153 0.0 0.0 0.00 0.00 0.00 68 1016.5
20260506215228 49 154 0.0 0.0 0.00 0.00 0.00 68 1016.5
20260506214350 48 210 0.9 1.7 0.00 0.00 0.00 71 1016.5
20260506213724 48 195 0.9 1.7 0.00 0.00 0.00 71 1016.5
20260506213350 48 188 0.0 0.9 0.00 0.00 0.00 72 1016.4
20260506212352 48 152 0.9 1.7 0.00 0.00 0.00 72 1016.4
20260506212231 48 147 0.0 0.9 0.00 0.00 0.00 72 1016.3
20260506211343 48 128 0.0 0.9 0.00 0.00 0.00 72 1016.4
20260506210726 48 151 0.9 0.9 0.00 0.00 0.00 72 1016.3
20260506210342 49 154 0.9 0.9 0.00 0.00 0.00 71 1016.3
20260506205344 49 112 0.0 0.0 0.00 0.00 0.00 71 1016.3
20260506205223 49 112 0.0 0.0 0.00 0.00 0.00 70 1016.3
20260506204345 49 132 0.9 0.9 0.00 0.00 0.00 70 1016.4
20260506203730 49 215 0.0 0.9 0.00 0.00 0.00 70 1016.4
20260506203346 49 224 0.0 0.0 0.00 0.00 0.00 70 1016.3
20260506202347 49 200 0.0 0.0 0.00 0.00 0.00 70 1016.2
20260506202226 49 200 0.0 0.0 0.00 0.00 0.00 70 1016.2
20260506201349 49 170 0.0 0.9 0.00 0.00 0.00 70 1016.2
20260506200723 49 162 0.0 0.0 0.00 0.00 0.00 70 1016.3
20260506200349 49 134 0.0 0.0 0.00 0.00 0.00 70 1016.3
20260506195351 50 182 0.0 0.0 0.00 0.00 0.00 70 1016.3
20260506195230 50 182 0.0 0.0 0.00 0.00 0.00 69 1016.4
20260506194352 50 170 0.0 0.0 0.00 0.00 0.00 69 1016.4
20260506193726 50 161 0.0 0.9 0.00 0.00 0.00 69 1016.4
20260506193342 50 193 0.0 0.9 0.00 0.00 0.00 69 1016.3
20260506192344 50 179 0.0 0.0 0.00 0.00 0.00 69 1016.3
20260506192223 50 179 0.0 0.0 0.00 0.00 0.00 69 1016.2
20260506191345 50 104 0.0 0.9 0.00 0.00 0.00 69 1016.2
20260506190729 50 197 0.0 0.0 0.00 0.00 0.00 69 1016.2
20260506190345 50 191 0.9 2.6 0.00 0.00 0.00 69 1016.2
20260506185347 51 132 0.9 0.9 0.00 0.00 0.00 68 1016.2
20260506185226 51 109 0.0 0.9 0.00 0.00 0.00 68 1016.1
20260506184348 51 189 0.0 0.0 0.00 0.00 0.00 67 1016.1
20260506183723 51 217 0.0 0.0 0.00 0.00 0.00 67 1016.1
20260506183349 51 217 0.0 0.0 0.00 0.00 0.00 66 1016.1
20260506182351 51 238 0.9 1.7 0.00 0.00 0.00 66 1016.0
20260506182229 51 245 0.0 1.7 0.00 0.00 0.00 66 1016.0
20260506181352 51 261 0.9 2.6 0.00 0.00 0.00 65 1015.9
20260506180726 52 257 0.0 0.0 0.00 0.00 0.00 64 1015.9
20260506180342 52 258 0.9 2.6 0.00 0.00 0.00 64 1015.9
20260506175344 52 243 0.9 0.9 0.00 0.00 0.00 63 1015.8
20260506175223 52 257 0.0 2.6 0.00 0.00 0.00 63 1015.8
20260506174345 52 237 0.9 2.6 0.00 0.00 0.00 62 1015.8
20260506173729 52 220 0.9 2.6 0.00 0.00 0.00 62 1015.7
20260506173345 52 255 0.9 1.7 0.00 0.00 0.00 61 1015.6
20260506172347 53 254 1.7 2.6 0.00 0.00 0.00 60 1015.5
20260506172226 53 258 0.0 2.6 0.00 0.00 0.00 60 1015.4
20260506171348 53 249 1.7 4.3 0.00 0.00 0.00 59 1015.4
20260506170722 53 250 0.9 2.6 0.00 0.00 0.00 59 1015.4
20260506170349 53 240 0.9 0.9 0.00 0.00 0.00 59 1015.3
20260506165350 54 261 0.0 0.9 0.00 0.00 0.00 58 1015.3
20260506165229 54 275 1.7 2.6 0.00 0.00 0.00 58 1015.3
20260506164351 54 279 1.7 4.3 0.00 0.00 0.00 56 1015.2
20260506163726 55 274 1.7 4.3 0.00 0.00 0.00 56 1015.1
20260506163342 55 231 0.9 0.9 0.00 0.00 0.00 55 1015.1
20260506162343 55 155 0.0 0.0 0.00 0.00 0.00 56 1015.1
20260506162222 55 317 0.0 0.9 0.00 0.00 0.00 56 1015.1
20260506161345 56 241 0.9 4.3 0.00 0.00 0.00 55 1015.0
20260506160728 56 265 4.3 5.2 0.00 0.00 0.00 55 1014.9
20260506160344 56 268 1.7 5.2 0.00 0.00 0.00 55 1014.9
20260506155346 55 289 5.2 7.0 0.00 0.00 0.00 56 1014.9
20260506155225 55 304 1.7 7.0 0.00 0.00 0.00 56 1014.9
20260506154347 55 266 1.7 1.7 0.00 0.00 0.00 57 1014.9
20260506153721 55 288 1.7 5.2 0.00 0.00 0.00 57 1014.9
20260506153347 55 288 2.6 5.2 0.00 0.00 0.00 56 1014.9
20260506152349 56 281 4.3 10.4 0.00 0.00 0.00 55 1014.9
20260506152228 56 305 6.1 12.2 0.00 0.00 0.00 55 1014.8
20260506151350 57 296 2.6 4.3 0.00 0.00 0.00 54 1014.7
20260506150724 57 260 1.7 2.6 0.00 0.00 0.00 55 1014.7
20260506150351 56 268 1.7 4.3 0.00 0.00 0.00 56 1014.7
20260506145342 56 298 2.6 7.8 0.00 0.00 0.00 56 1014.8
20260506145221 56 309 2.6 4.3 0.00 0.00 0.00 55 1014.8
20260506144343 56 296 4.3 7.0 0.00 0.00 0.00 55 1014.7
20260506143728 56 303 2.6 5.2 0.00 0.00 0.00 56 1014.7
20260506143344 57 287 2.6 8.7 0.00 0.00 0.00 55 1014.7
20260506142345 56 266 2.6 7.8 0.00 0.00 0.00 57 1014.8
20260506142224 56 279 5.2 6.1 0.00 0.00 0.00 57 1014.8
20260506141347 56 283 2.6 5.2 0.00 0.00 0.00 56 1014.8
20260506140721 56 269 2.6 7.0 0.00 0.00 0.00 57 1014.8
20260506140347 56 270 4.3 8.7 0.00 0.00 0.00 57 1014.8
20260506135349 56 306 2.6 4.3 0.00 0.00 0.00 58 1014.7
20260506135228 56 290 0.9 5.2 0.00 0.00 0.00 58 1014.7
20260506134350 55 233 4.3 6.1 0.00 0.00 0.00 59 1014.7
20260506133724 55 270 2.6 5.2 0.00 0.00 0.00 58 1014.8
20260506133350 55 266 1.7 2.6 0.00 0.00 0.00 59 1014.8
20260506132342 56 296 2.6 5.2 0.00 0.00 0.00 58 1014.8
20260506132221 56 287 1.7 7.0 0.00 0.00 0.00 58 1014.8
20260506131343 56 254 4.3 5.2 0.00 0.00 0.00 57 1014.7
20260506130727 56 254 0.0 7.0 0.00 0.00 0.00 57 1014.7
20260506130343 56 226 1.7 2.6 0.00 0.00 0.00 58 1014.8
20260506125345 56 275 1.7 4.3 0.00 0.00 0.00 60 1014.8
20260506125224 56 284 2.6 6.1 0.00 0.00 0.00 59 1014.8
20260506124346 55 291 2.6 4.3 0.00 0.00 0.00 61 1014.9
20260506123721 54 223 2.6 5.2 0.00 0.00 0.00 62 1014.9
20260506123347 54 295 2.6 5.2 0.00 0.00 0.00 62 1014.9
20260506122349 54 292 4.3 5.2 0.00 0.00 0.00 61 1014.9
20260506122227 55 283 5.2 7.8 0.00 0.00 0.00 60 1015.0
20260506121350 55 265 5.2 7.0 0.00 0.00 0.00 59 1015.0
20260506120724 55 246 1.7 5.2 0.00 0.00 0.00 60 1015.0
20260506120350 55 291 5.2 7.8 0.00 0.00 0.00 59 1015.0
20260506115342 55 278 5.2 7.0 0.00 0.00 0.00 60 1015.1
20260506115221 55 302 4.3 8.7 0.00 0.00 0.00 60 1015.1
20260506114343 55 266 0.9 1.7 0.00 0.00 0.00 60 1015.1
20260506113727 54 288 0.9 5.2 0.00 0.00 0.00 61 1015.2
20260506113343 54 298 2.6 6.1 0.00 0.00 0.00 61 1015.2
20260506112345 54 280 2.6 5.2 0.00 0.00 0.00 60 1015.3
20260506112224 54 292 0.9 2.6 0.00 0.00 0.00 60 1015.3
20260506111346 55 306 2.6 7.8 0.00 0.00 0.00 59 1015.3
20260506110731 55 268 0.9 1.7 0.00 0.00 0.00 60 1015.3
20260506110347 55 250 1.7 2.6 0.00 0.00 0.00 60 1015.4
20260506105348 55 249 4.3 7.8 0.00 0.00 0.00 59 1015.4
20260506105227 55 281 7.0 8.7 0.00 0.00 0.00 59 1015.4
20260506104349 55 162 0.9 0.9 0.00 0.00 0.00 59 1015.4
20260506103724 55 242 1.7 5.2 0.00 0.00 0.00 60 1015.4
20260506103350 54 281 0.0 5.2 0.00 0.00 0.00 60 1015.4
20260506102341 54 220 0.0 1.7 0.00 0.00 0.00 62 1015.4
20260506102231 54 99 0.9 0.9 0.00 0.00 0.00 62 1015.4
20260506101343 54 293 4.3 5.2 0.00 0.00 0.00 62 1015.4
20260506100727 54 293 1.7 2.6 0.00 0.00 0.00 64 1015.4
20260506100343 53 295 4.3 5.2 0.00 0.00 0.00 63 1015.4
20260506095344 53 220 0.9 2.6 0.00 0.00 0.00 64 1015.4
20260506095223 53 275 0.9 1.7 0.00 0.00 0.00 63 1015.4
20260506094345 53 253 0.0 0.9 0.00 0.00 0.00 64 1015.5
20260506093729 53 285 2.6 2.6 0.00 0.00 0.00 66 1015.5
20260506093345 53 38 0.0 0.9 0.00 0.00 0.00 67 1015.6
20260506092347 52 279 0.0 4.3 0.00 0.00 0.00 68 1015.5
20260506092226 52 280 0.0 2.6 0.00 0.00 0.00 68 1015.6
20260506091348 51 295 1.7 2.6 0.00 0.00 0.00 70 1015.5
20260506090722 51 295 1.7 2.6 0.00 0.00 0.00 70 1015.5
20260506090349 51 275 1.7 4.3 0.00 0.00 0.00 72 1015.5
20260506085350 50 290 4.3 5.2 0.00 0.00 0.00 72 1015.6
20260506085229 50 291 2.6 5.2 0.00 0.00 0.00 73 1015.6
20260506084341 50 292 1.7 4.3 0.00 0.00 0.00 73 1015.6
20260506083726 50 300 4.3 7.8 0.00 0.00 0.00 73 1015.6
20260506083342 50 312 1.7 6.1 0.00 0.00 0.00 73 1015.6
20260506082344 50 299 0.9 5.2 0.00 0.00 0.00 71 1015.5
20260506082222 50 287 0.0 2.6 0.00 0.00 0.00 72 1015.5
20260506081345 50 309 1.7 2.6 0.00 0.00 0.00 72 1015.4
20260506080729 50 293 0.9 1.7 0.00 0.00 0.00 72 1015.3
20260506080345 50 290 2.6 5.2 0.00 0.00 0.00 72 1015.3
20260506073348 49 260 1.7 2.6 0.00 0.00 0.00 74 1015.1
20260506072350 49 313 1.7 2.6 0.00 0.00 0.00 76 1015.1
20260506072229 49 339 1.7 2.6 0.00 0.00 0.00 76 1015.2
20260506071341 48 315 1.7 2.6 0.00 0.00 0.00 76 1015.1
20260506070726 48 287 0.9 2.6 0.00 0.00 0.00 77 1015.2
20260506070342 48 275 0.0 2.6 0.00 0.00 0.00 77 1015.2
20260506062347 48 355 1.7 2.6 0.00 0.00 0.00 79 1015.1
20260506062226 48 326 1.7 2.6 0.00 0.00 0.00 79 1015.2
20260506061348 47 331 0.9 2.6 0.00 0.00 0.00 80 1015.2
20260506060722 46 305 0.9 0.0 0.00 0.00 0.00 81 1015.2
20260506060348 46 291 1.7 2.6 0.00 0.00 0.00 81 1015.2
20260506051344 45 267 0.9 2.6 0.00 0.00 0.00 84 1015.0
20260506050728 45 293 0.9 2.6 0.00 0.00 0.00 85 1015.0
20260506050344 45 287 0.9 2.6 0.00 0.00 0.00 85 1014.9
20260506044347 44 269 0.0 1.7 0.00 0.00 0.00 87 1014.7
20260506043721 44 238 0.9 1.7 0.00 0.00 0.00 87 1014.8
20260506043347 44 283 1.7 4.3 0.00 0.00 0.00 87 1014.7
20260506042349 43 284 0.9 1.7 0.00 0.00 0.00 88 1014.7
20260506042228 43 283 1.7 2.6 0.00 0.00 0.00 88 1014.6
20260506041350 43 295 0.9 4.3 0.00 0.00 0.00 89 1014.5
20260506040724 43 261 0.9 0.9 0.00 0.00 0.00 89 1014.4
20260506040351 43 259 0.9 1.7 0.00 0.00 0.00 89 1014.4
20260506035342 43 287 0.9 2.6 0.00 0.00 0.00 89 1014.4
20260506035221 43 281 0.0 0.0 0.00 0.00 0.00 89 1014.4
20260506034343 43 295 2.6 5.2 0.00 0.00 0.00 89 1014.3
20260506033727 43 297 2.6 2.6 0.00 0.00 0.00 89 1014.2
20260506033343 43 289 1.7 2.6 0.00 0.00 0.00 89 1014.2
20260506032345 43 297 2.6 4.3 0.00 0.00 0.00 88 1014.1
20260506032224 44 297 1.7 2.6 0.00 0.00 0.00 88 1014.1
20260506031346 44 282 1.7 2.6 0.00 0.00 0.00 87 1013.9
20260506030721 44 272 0.9 2.6 0.00 0.00 0.00 88 1013.9
20260506030347 44 284 1.7 2.6 0.00 0.00 0.00 88 1013.9
20260506025348 44 282 1.7 2.6 0.00 0.00 0.00 88 1013.8
20260506025227 44 284 1.7 2.6 0.00 0.00 0.00 88 1013.8
20260506024350 44 289 0.9 2.6 0.00 0.00 0.00 88 1013.7
20260506023724 44 276 0.9 1.7 0.00 0.00 0.00 88 1013.6
20260506023350 44 278 1.7 2.6 0.00 0.00 0.00 88 1013.6
20260506022342 44 291 0.9 2.6 0.00 0.00 0.00 88 1013.5
20260506022221 44 284 1.7 2.6 0.00 0.00 0.00 88 1013.5